STARLINK-1741, 46567

Orbit data source: Space-Track

STARLINK-1741, 46567 is a payload satellite owned by SpaceX/Seattle (US) in LEO that was launched on Tue, 06 Oct 2020 UTC via an FALCON 9 launch vehicle from the Air Force Eastern Test Range (AFETR). Payloads include a variety of satellites, spacecraft, and rockets equipped with specific instruments for various scientific and technological missions. These include communications satellites like Starlink; space stations such as the ISS; scientific satellites like the Hubble; Earth observation satellites from companies like Planet Labs, Umbra, and HawkEye 360; GPS; miniature CubeSats for education and research; and military/defense satellites.

Loading next visibility...
STARLINK-1741 details
Identifier
46567, 2020-070AM
Orbit
LEO
Last TLE update8 hours ago
Origin
Flag of USSpaceX/Seattle (US)
ManufacturerSpaceX/Seattle
MissionOperational Commercial Communications
Bus & MotorSTARLINK, Unknown motor
Mass260 kg wet, ~248 kg dry
Launch date (UTC)
2020-10-06 (4 years ago)
Launch vehicle
FALCON 9
Launch site
Air Force Eastern Test Range (AFETR)
Object type
Payload
Rocket body
Debris
Shape & HBRBox + 1 Pan, 8.86 m
Radar Cross Section13.562 m², Large (>1 m²)

Expand to show TLE details & history

TLE from 8 hours ago
0 STARLINK-1741
1 46567U 20070AM  24361.09937591  .00026964  00000-0  18215-2 0  9992
2 46567  53.0550 325.5272 0001461  78.4251 281.6902 15.06413515233684
Epoch: 2024-12-26T02:23Z
Definitive object data (Epoch: 2024-12-26T02:23:06.078Z)
Latitude-0.00003°
Longitude-165.33178°
Altitude547.845 km
Speed7.589 km/s
True Right ascension21h 42m 06s
True Declination0° 00' 00"
Sunlit
Object was in daylight at TLE epoch
Visualization TLE readout
Latitude17.28439°
Longitude-153.38149°
Altitude546.84 km
Speed7.592 km/s
Apparent Right ascension22h 11m 58s
Apparent Declination-10° 01' 07"
Sunlit
Object is in daylight
Visualization observer readout
Local Sidereal Time09:47:43
Azimuth348.137° N
Elevation-59.621°
Doppler factor1
Orbital elements
Apogee altitude548.453 km
Perigee altitude546.429 km
Semi-major axis6,925.578 km
Eccentricity0.0001461
Inclination53.055°
RAAN325.5272°
Arg. of periapsis78.4251°
True anomaly281.6738°
Mean anomaly281.6902°
Eccentric anomaly281.682°
Mean motion3.76582 °/min
BSTAR0.0018215
Orbital period95.6 mins
Loading maneuver chart data...
Loading historical data...
Loading historical data...
Loading historical data...
Loading historical data...
Loading historical data...
Loading historical data...
Loading historical data...

STARLINK-1741 Visibility forecast

Observer location: undefined°, undefined

Span
Click to sort rows by Start time (UTC) header in descending order
Start Az.
Max El. time (UTC)
Max El. Az.
Max El.
End time (UTC)
End Az.
4 mins2024-12-26 23:14:32.758Z157.509° S2024-12-26 23:16:32.758Z123.112° SE16.517°2024-12-26 23:18:32.758Z90.997° ESE
6 mins2024-12-27 00:52:32.758Z243.423° WSW2024-12-27 00:55:32.758Z330.377° NNW42.08°2024-12-27 00:58:32.758Z42.662° NE
5 mins2024-12-27 05:55:32.758Z349.717° N2024-12-27 05:57:32.758Z34.196° NE22.626°2024-12-27 06:00:32.758Z81.476° E
6 mins2024-12-27 07:34:32.758Z299.58° NW2024-12-27 07:36:32.758Z259.916° W40.827°2024-12-27 07:40:32.758Z142.65° SSE
|